Weather History for Kinloss, United Kingdom

Change the Weather History Date:

Monday, February 4, 2013

  Actual Average Record
Temperature  
Mean Temperature 36 °F -  
Max Temperature 38 °F 44 °F 55 °F (2000)
Min Temperature 32 °F 32 °F 30 °F (2001)
Degree Days  
Heating Degree Days 30    
Moisture  
Dew Point 31 °F    
Average Humidity 79    
Maximum Humidity 87    
Minimum Humidity 65    
Precipitation  
Precipitation 0.12 in 0.05 in - ()
Sea Level Pressure  
Sea Level Pressure 29.26 in    
Wind  
Wind Speed 21 mph ()    
Max Wind Speed 32 mph    
Max Gust Speed 56 mph    
Visibility 8.1 miles    
Events Rain , Snow    
Averages and records for this station are not official NWS values.
T = Trace of Precipitation, MM = Missing Value Source: Averaged Metar Reports

Daily Weather History Graph

Daily Weather History Graph

Search for Another Location

Airport:

Trip Planner

Search our weather history database for the weather conditions in past years. The results will help you decide how hot, cold, wet, or windy it might be!

Date:

Astronomy

Feb. 04, 2013 Rise Set
Actual Time 8:09 AM GMT 4:47 PM GMT
Civil Twilight 7:26 AM GMT 5:30 PM GMT
Nautical Twilight 6:40 AM GMT 6:17 PM GMT
Astronomical Twilight 5:55 AM GMT 7:02 PM GMT
Moon 2:44 AM GMT (2/4) 10:41 AM GMT (2/4)
Length of Visible Light 10h 03m
Length of Day
8h 37m
Last Quarter, 40% of the Moon is Illuminated
Feb 4
Last Quarter
Feb 10
New
Feb 17
First Quarter
Feb 25
Full
Mar 4
Last Quarter

Hourly Weather History & Observations

Time (GMT) Temp. Windchill Dew Point Humidity Pressure Visibility Wind Dir Wind Speed Gust Speed Precip Events Conditions
12:50 AM 44.6 °F 34.4 °F 37.4 °F 76% 29.33 in 6.2 mi West 32.2 mph 46.0 mph N/A Rain Light Rain Showers
1:50 AM 42.8 °F 34.5 °F 35.6 °F 76% 29.33 in 6.2 mi WSW 18.4 mph - N/A   Scattered Clouds
2:50 AM 40 °F - 35 °F 76% 29.34 in 17 mi WSW 18.4 mph - - Rain Rain
2:50 AM 39.2 °F 29.8 °F 35.6 °F 87% 29.33 in 6.2 mi WSW 18.4 mph - N/A   Mostly Cloudy
3:50 AM 39.2 °F 29.3 °F 32.0 °F 75% 29.33 in 6.2 mi WSW 20.7 mph - N/A   Scattered Clouds
4:50 AM 37.4 °F 25.6 °F 32.0 °F 81% 29.33 in 3.7 mi West 26.5 mph 56.4 mph N/A Rain Light Rain Showers
5:50 AM 37 °F - 32 °F 74% 29.34 in 16 mi WSW 26.5 mph - - Rain Light Rain
5:50 AM 37.4 °F 25.6 °F 32.0 °F 81% 29.33 in 6.2 mi WSW 26.5 mph 39.1 mph N/A Rain Light Rain
6:50 AM 35.6 °F 24.0 °F 32.0 °F 87% 29.33 in 6.2 mi WSW 23.0 mph - N/A   Scattered Clouds
7:50 AM 35.6 °F 24.5 °F 32.0 °F 87% 29.33 in 6.2 mi WSW 20.7 mph - N/A   Scattered Clouds
8:50 AM 37 °F - 29 °F 65% 29.33 in 17 mi WSW 21.9 mph - - Rain Rain
8:50 AM 37.4 °F 26.6 °F 30.2 °F 75% 29.33 in 6.2 mi WSW 21.9 mph - N/A   Partly Cloudy
10:50 AM 35.6 °F 23.7 °F 30.2 °F 81% 29.30 in 6.2 mi WSW 24.2 mph - N/A   Scattered Clouds
11:50 AM 37 °F - 31 °F 70% 29.31 in 17 mi WSW 23.0 mph - - Snow Snow
11:50 AM 37.4 °F 26.4 °F 30.2 °F 75% 29.30 in 6.2 mi WSW 23.0 mph - N/A   Partly Cloudy
12:50 PM 37.4 °F 26.4 °F 30.2 °F 75% 29.30 in 6.2 mi WSW 23.0 mph 36.8 mph N/A   Scattered Clouds
1:50 PM 37.4 °F 27.2 °F 30.2 °F 75% 29.27 in 6.2 mi WSW 19.6 mph - N/A   Mostly Cloudy
2:50 PM 35.6 °F 22.5 °F 30.2 °F 81% 29.27 in 6.2 mi WSW 29.9 mph 46.0 mph N/A Rain Light Rain Showers
3:50 PM 35.6 °F 24.8 °F 30.2 °F 81% 29.24 in 6.2 mi WSW 19.6 mph 32.2 mph N/A   Mostly Cloudy
4:50 PM 33.8 °F 20.8 °F 30.2 °F 87% 29.24 in 0.7 mi WSW 26.5 mph 39.1 mph N/A Snow Snow Showers
5:50 PM 34 °F - 31 °F 82% 29.24 in 22 mi West 19.6 mph - -   Unknown Precipitation
5:50 PM 33.8 °F 22.5 °F 30.2 °F 87% 29.24 in 6.2 mi West 19.6 mph - N/A   Mostly Cloudy
6:50 PM 33.8 °F 21.3 °F 28.4 °F 81% 29.18 in 6.2 mi WSW 24.2 mph - N/A   Partly Cloudy
7:50 PM 33.8 °F 21.9 °F 28.4 °F 81% 29.18 in 6.2 mi WSW 21.9 mph - N/A   Partly Cloudy
8:50 PM 33 °F - 29 °F 79% 29.17 in 19 mi WSW 25.3 mph - - Snow Snow
8:50 PM 33.8 °F 21.0 °F 28.4 °F 81% 29.15 in 6.2 mi WSW 25.3 mph - N/A   Scattered Clouds
9:50 PM 33.8 °F 20.5 °F 28.4 °F 81% 29.15 in 6.2 mi WSW 27.6 mph - N/A Snow Light Snow Showers
10:50 PM 33.8 °F 22.2 °F 28.4 °F 81% 29.15 in 3.1 mi SW 20.7 mph - N/A   Partly Cloudy
11:50 PM 33 °F - 28 °F 77% 29.12 in 17 mi SW 20.7 mph - -   Unknown Precipitation
11:50 PM 32.0 °F 19.8 °F 28.4 °F 87% 29.12 in 6.2 mi SW 20.7 mph - N/A   Partly Cloudy